TimeEST,TemperatureF,Dew PointF,Humidity,Sea Level PressureIn,VisibilityMPH,Wind Direction,Wind SpeedMPH,Gust SpeedMPH,PrecipitationIn,Events,Conditions,WindDirDegrees,DateUTC
12:53 AM,66.0,64.9,96,30.04,10.0,Calm,Calm,-,N/A,,Partly Cloudy,0,2013-01-17 05:53:00
1:53 AM,64.0,64.0,100,30.04,7.0,Calm,Calm,-,N/A,Fog,Patches of Fog,0,2013-01-17 06:53:00
2:53 AM,62.1,62.1,100,30.04,10.0,Calm,Calm,-,N/A,,Scattered Clouds,0,2013-01-17 07:53:00
3:53 AM,64.0,62.1,93,30.03,10.0,Calm,Calm,-,N/A,,Scattered Clouds,0,2013-01-17 08:53:00
4:53 AM,60.1,59.0,96,30.03,10.0,SSE,5.8,-,N/A,,Scattered Clouds,150,2013-01-17 09:53:00
5:53 AM,61.0,60.1,97,30.03,10.0,SSE,3.5,-,N/A,,Mostly Cloudy,160,2013-01-17 10:53:00
6:53 AM,61.0,61.0,100,30.04,10.0,SSE,3.5,-,N/A,,Partly Cloudy,160,2013-01-17 11:53:00
7:53 AM,63.0,63.0,100,30.05,10.0,South,5.8,-,N/A,Fog,Shallow Fog,170,2013-01-17 12:53:00
8:53 AM,69.1,66.0,90,30.05,10.0,South,6.9,-,N/A,,Scattered Clouds,180,2013-01-17 13:53:00
9:19 AM,71.6,66.2,83,30.06,10.0,South,9.2,-,N/A,,Scattered Clouds,190,2013-01-17 14:19:00
9:53 AM,73.9,68.0,82,30.06,10.0,South,13.8,-,N/A,,Mostly Cloudy,190,2013-01-17 14:53:00
10:53 AM,77.0,66.0,69,30.03,10.0,SSW,15.0,-,N/A,,Scattered Clouds,210,2013-01-17 15:53:00
11:53 AM,80.1,64.9,60,30.00,10.0,South,18.4,-,N/A,,Scattered Clouds,190,2013-01-17 16:53:00
12:53 PM,78.1,63.0,60,29.98,10.0,WSW,18.4,28.8,0.00,,Mostly Cloudy,240,2013-01-17 17:53:00
1:53 PM,72.0,63.0,73,29.97,10.0,West,20.7,26.5,N/A,,Mostly Cloudy,280,2013-01-17 18:53:00
2:10 PM,71.6,62.6,73,29.98,10.0,West,18.4,26.5,N/A,,Overcast,270,2013-01-17 19:10:00
2:40 PM,66.2,60.8,83,30.00,10.0,West,19.6,26.5,0.00,,Drizzle,280,2013-01-17 19:40:00
2:53 PM,66.0,59.0,78,30.00,10.0,West,18.4,27.6,0.00,,Light Drizzle,280,2013-01-17 19:53:00
3:11 PM,62.6,57.2,82,30.01,9.0,West,20.7,29.9,0.00,,Light Drizzle,270,2013-01-17 20:11:00
3:53 PM,62.1,55.0,78,30.03,10.0,West,16.1,28.8,0.00,,Overcast,280,2013-01-17 20:53:00
4:53 PM,61.0,52.0,72,30.05,10.0,West,19.6,31.1,N/A,,Overcast,280,2013-01-17 21:53:00
5:29 PM,60.8,50.0,68,30.06,10.0,West,15.0,23.0,N/A,,Mostly Cloudy,280,2013-01-17 22:29:00
5:53 PM,60.1,50.0,69,30.06,10.0,West,13.8,21.9,N/A,,Overcast,270,2013-01-17 22:53:00
6:53 PM,60.1,48.0,64,30.08,10.0,West,17.3,24.2,N/A,,Overcast,280,2013-01-17 23:53:00
7:53 PM,57.9,46.0,65,30.09,10.0,West,17.3,27.6,N/A,,Scattered Clouds,280,2013-01-18 00:53:00
8:53 PM,55.9,46.0,69,30.11,10.0,West,12.7,20.7,N/A,,Scattered Clouds,280,2013-01-18 01:53:00
9:15 PM,57.2,46.4,67,30.11,10.0,West,17.3,21.9,N/A,,Mostly Cloudy,280,2013-01-18 02:15:00
9:31 PM,57.2,46.4,67,30.11,10.0,WNW,18.4,25.3,N/A,,Mostly Cloudy,290,2013-01-18 02:31:00
9:53 PM,55.9,45.0,67,30.11,10.0,WNW,20.7,-,N/A,,Mostly Cloudy,290,2013-01-18 02:53:00
10:53 PM,55.0,45.0,69,30.11,10.0,WNW,17.3,-,N/A,,Scattered Clouds,290,2013-01-18 03:53:00
11:53 PM,53.1,43.0,69,30.12,10.0,West,13.8,27.6,N/A,,Scattered Clouds,280,2013-01-18 04:53:00